[Iaude] MPEC M100: 2024 MZ [a=2.68,e=0.62,i=4.9,H=23.1]

mpec at cfa.harvard.edu mpec at cfa.harvard.edu
Fri Jun 28 06:13:58 EDT 2024


M.P.E.C. 2024-M100                                Issued 2024 June 28, 10:12 UT

     The Minor Planet Electronic Circulars contain information on unusual
         minor planets, routine data on comets and natural satellites,
         and occasional editorial announcements.  They are published
    on behalf of Division F of the International Astronomical Union by the
          Minor Planet Center, Smithsonian Astrophysical Observatory,
                          Cambridge, MA 02138, U.S.A.
			  
             Prepared using the Tamkin Foundation Computer Network

                              MPC at CFA.HARVARD.EDU
            URL https://www.minorplanetcenter.net/    ISSN 1523-6714

                                    2024 MZ                                     


Observations:
     K24M00Z* C2024 06 26.33435316 35 38.445-21 10 40.57         21.84wXEM100F52
     K24M00Z  C2024 06 26.34226516 35 37.598-21 10 47.06         22.01wXEM100F52
     K24M00Z  C2024 06 26.35017016 35 36.755-21 10 53.33         21.91wXEM100F52
     K24M00Z DC2024 06 27.28812 16 34 06.70 -21 23 36.4          21.6 GVEM100695
     K24M00Z DC2024 06 27.29049 16 34 06.45 -21 23 38.3          21.7 GVEM100695
     K24M00Z  C2024 06 27.35020816 34 01.473-21 24 24.35         22.02GVEM100F52
     K24M00Z  C2024 06 27.35103516 34 01.386-21 24 25.18         21.69GVEM100F52
     K24M00Z KC2024 06 28.27499 16 32 32.01 -21 37 29.2                VEM100291
     K24M00Z KC2024 06 28.28097 16 32 31.39 -21 37 34.2                VEM100291
     K24M00Z KC2024 06 28.28696 16 32 30.75 -21 37 39.5                VEM100291

Observer details:
291 LPL/Spacewatch II.  Observer R. A. Mastaler.  1.8-m f/2.7 reflector + CCD.
695 Kitt Peak.  Observer M. J. Brucker.  2.3-m f/9 reflector + CCD.
F52 Pan-STARRS 2, Haleakala.  Observers J. Herman, T. Lowe, P. Minguez, A.
    Schultz, I. Smith.  Measurers K. Chambers, T. de Boer, J. Fairlamb, H.
    Gao, M. Huber, C.-C. Lin, E. Magnier, Y. Ramanjooloo, R. Wainscoat, R.
    Weryk.  1.8-m Ritchey-Chretien + CCD.

Orbital elements:
2024 MZ                                                  Earth MOID = 0.0650 AU
Epoch 2024 Mar. 31.0 TT = JDT 2460400.5                 MPC                     
M 326.58279              (2000.0)            P               Q                  
n   0.22440629     Peri.  241.15582     +0.88659533     +0.45456060             
a   2.6819213      Node    91.69356     -0.38893256     +0.83276601             
e   0.6199208      Incl.    4.91134     -0.25036011     +0.31603073             
P   4.39           H   23.13          G   0.15           U   9                  
Residuals in seconds of arc
240626 F52  0.0   0.1+    240627 695  0.0   0.1+    240628 291  0.1+  0.1+
240626 F52  0.0   0.1-    240627 F52  0.0   0.1+    240628 291  0.2+  0.2-
240626 F52  0.0   0.0     240627 F52  0.0   0.1-
240627 695  0.0   0.1+    240628 291  0.2-  0.0

Ephemeris:
2024 MZ                  a,e,i = 2.68, 0.62, 5                   q = 1.0193
Date    TT    R. A. (2000) Decl.     Delta      r    Elong.  Phase     V
2024 05 29    17 08 52.7 -17 45 21   0.5100  1.5170   168.8     7.5    23.1
...
2024 06 13    16 54 40.4 -18 57 41   0.3831  1.3957   171.6     6.1    22.2
...
2024 06 21    16 43 47.4 -20 07 25   0.3290  1.3332   162.2    13.5    22.1
...
2024 06 27    16 34 34.9 -21 19 16   0.2937  1.2881   154.7    19.7    22.0
2024 06 28    16 32 59.1 -21 33 09   0.2882  1.2807   153.4    20.8    22.0
2024 06 29    16 31 22.5 -21 47 38   0.2828  1.2734   152.1    21.9    22.0
...
2024 07 05    16 21 33.6 -23 28 21   0.2525  1.2307   144.3    28.8    21.9
...
2024 07 13    16 08 38.4 -26 27 32   0.2165  1.1777   134.2    38.3    21.7
...
2024 07 28    15 46 27.1 -35 40 32   0.1572  1.0940   116.2    56.4    21.3

A. U. Tomatic                (C) Copyright 2024 MPC           M.P.E.C. 2024-M100





More information about the Iaude mailing list